Regional Weather Roundup
Issued by NWS Memphis, TN

Home | Current Version | Previous Version | Text Only | Print | Product List | Glossary On
Versions: 1 2 3 4 5 6 7 8 9 10 11 12 13 14 15 16 17 18 19 20 21 22 23 24 25 26 27 28 29 30 31 32 33 34 35 36 37 38 39 40 41 42 43 44 45 46 47 48 49 50
000
ASUS44 KMEG 020710
RWRMEG
MEMPHIS CWA HOURLY WEATHER ROUNDUP
NATIONAL WEATHER SERVICE MEMPHIS TN
100 AM CST MON MAR 02 2015

...WEST TENNESSEE...

CITY           SKY/WX    TMP DP  RH WIND       PRES   REMARKS
MEMPHIS INTL   CLOUDY    38  35  89 N10       30.40R WCI  31
NWS MEMPHIS      N/A     36 N/A N/A MISG        N/A
JACKSON        CLOUDY    36  33  89 N9        30.41R WCI  29
LEXINGTON      CLOUDY    36  36 100 N7        30.37S WCI  30
SAVANNAH       CLOUDY    39  39 100 N9        30.36F WCI  33
DYERSBURG      CLOUDY    34  21  60 N5        30.46R WCI  30
UNION CITY     CLOUDY    30  30 100 N13       30.42F WCI  20
PARIS          CLOUDY    30  28  93 N8        30.42R WCI  23


...EASTERN ARKANSAS...

CITY           SKY/WX    TMP DP  RH WIND       PRES   REMARKS
JONESBORO      CLOUDY    35  31  85 NE12      30.45R WCI  27
WEST MEMPHIS   CLOUDY    36  35  96 N9        30.42R WCI  29
BATESVILLE     CLOUDY    36  30  80 N5        30.45R WCI  32
NEWPORT        CLOUDY    35  33  92 N12       30.47R WCI  27
WALNUT RIDGE   MOCLDY    34  28  80 N7        30.46R WCI  28
BLYTHEVILLE    CLOUDY    34  31  88 NE15      30.45R WCI  24
SEARCY         CLOUDY    38  35  89 N9        30.45R WCI  31
STUTTGART      CLOUDY    39  36  87 NE13      30.41S WCI  32
PINE BLUFF     CLOUDY    39  37  92 N12       30.42R FOG     WCI  32
MONTICELLO     CLOUDY    40  37  89 VRB5      30.37S FOG


...NORTH MISSISSIPPI...

CITY           SKY/WX    TMP DP  RH WIND       PRES   REMARKS
TUPELO         CLOUDY    51  49  92 NE6       30.34R FOG
OXFORD         CLOUDY    39  39 100 N10       30.37S WCI  32
OLIVE BRANCH   CLOUDY    36 N/A N/A NE10      30.39S WCI  28
TUNICA         CLOUDY    37  36  93 N12       30.42R WCI  30
CLARKSDALE     CLOUDY    37  37 100 N17       30.40R WCI  28
CORINTH        MIX PCPN  43  41  93 N8        30.36S
GREENWOOD        N/A    N/A N/A N/A MISG      30.33S
COLUMBUS       DRZL/FOG  52  52 100 CALM      30.32F VSB 3/4
STARKVILLE     FOG       52  50  93 CALM      30.32S VSB 1/4
GOLDEN TRIANGL CLOUDY    54  52  94 CALM      30.31F VSB 3/4


...SOUTHEAST MISSOURI...

CITY           SKY/WX    TMP DP  RH WIND       PRES   REMARKS
WEST PLAINS    PTCLDY    28  21  75 NE8       30.45S WCI  20
POPLAR BLUFF   CLEAR     32  24  72 N10       30.47R WCI  24
CAPE GIRARDEAU PTCLDY    30  25  81 N8        30.48R WCI  22


...NORTHWEST ALABAMA...

CITY           SKY/WX    TMP DP  RH WIND       PRES   REMARKS
MUSCLE SHOALS  FOG       51  49  92 CALM      30.33S VSB 1/4


...MIDDLE TENNESSEE...

CITY           SKY/WX    TMP DP  RH WIND       PRES   REMARKS
NASHVILLE      CLOUDY    37  35  92 N7        30.39R FOG     WCI  32
CLARKSVILLE    CLOUDY    33  31  92 N12       30.41R FOG     WCI  24
COLUMBIA       CLOUDY   N/A N/A N/A N9        30.35R


...WESTERN KENTUCKY...

CITY           SKY/WX    TMP DP  RH WIND       PRES   REMARKS
PADUCAH        PTCLDY    31  24  75 N10       30.46R WCI  22
FORT CAMPBELL  CLOUDY    32  30  93 N8        30.41R WCI  25


...CENTRAL ARKANSAS...

CITY           SKY/WX    TMP DP  RH WIND       PRES   REMARKS
LITTLE ROCK    CLOUDY    39  34  82 N9        30.42S WCI  33


SKY/WX REPORTED AS FAIR MEANS FEW OR NO CLOUDS BELOW
12 THOUSAND FEET.




USA.gov is the U.S. government's official web portal to all federal, state and local government web resources and services.